owner,sensor,date,latitude,longitude,sea_surface_height_above_sea_level,qcFlag 
COMPS,ioos:station:USF.COMPS:ANM:1,2011-10-01T00:00:00Z,27.5400,-82.7400,-0.084,1111122 
COMPS,ioos:station:USF.COMPS:ANM:1,2011-10-01T00:06:00Z,27.5400,-82.7400,-0.086,1111122 
COMPS,ioos:station:USF.COMPS:ANM:1,2011-10-01T00:12:00Z,27.5400,-82.7400,-0.088,1111122 
COMPS,ioos:station:USF.COMPS:ANM:1,2011-10-01T00:18:00Z,27.5400,-82.7400,-0.083,1111122 
COMPS,ioos:station:USF.COMPS:ANM:1,2011-10-01T00:24:00Z,27.5400,-82.7400,-0.074,1111122 
COMPS,ioos:station:USF.COMPS:ANM:1,2011-10-01T00:30:00Z,27.5400,-82.7400,-0.072,1111122 
COMPS,ioos:station:USF.COMPS:ANM:1,2011-10-01T00:36:00Z,27.5400,-82.7400,-0.072,1111122 
COMPS,ioos:station:USF.COMPS:ANM:1,2011-10-01T00:42:00Z,27.5400,-82.7400,-0.063,1111122 
COMPS,ioos:station:USF.COMPS:ANM:1,2011-10-01T00:48:00Z,27.5400,-82.7400,-0.064,1111122 
COMPS,ioos:station:USF.COMPS:ANM:1,2011-10-01T00:54:00Z,27.5400,-82.7400,-0.051,1111122 
COMPS,ioos:station:USF.COMPS:ANM:1,2011-10-01T01:00:00Z,27.5400,-82.7400,-0.041,1111122 
COMPS,ioos:station:USF.COMPS:ANM:1,2011-10-01T01:06:00Z,27.5400,-82.7400,-0.033,1111122 
COMPS,ioos:station:USF.COMPS:ANM:1,2011-10-01T01:12:00Z,27.5400,-82.7400,-0.01,1111122 
COMPS,ioos:station:USF.COMPS:ANM:1,2011-10-01T01:18:00Z,27.5400,-82.7400,-0.011,1111122 
COMPS,ioos:station:USF.COMPS:ANM:1,2011-10-01T01:24:00Z,27.5400,-82.7400,-0.009,1111122 
COMPS,ioos:station:USF.COMPS:ANM:1,2011-10-01T01:30:00Z,27.5400,-82.7400,-0.006,1111122 
COMPS,ioos:station:USF.COMPS:ANM:1,2011-10-01T01:36:00Z,27.5400,-82.7400,-0.007,1111122 
COMPS,ioos:station:USF.COMPS:ANM:1,2011-10-01T01:42:00Z,27.5400,-82.7400,0.01,1111122 
COMPS,ioos:station:USF.COMPS:ANM:1,2011-10-01T01:48:00Z,27.5400,-82.7400,0.014,1111122 
COMPS,ioos:station:USF.COMPS:ANM:1,2011-10-01T01:54:00Z,27.5400,-82.7400,0.01,1111122 
COMPS,ioos:station:USF.COMPS:ANM:1,2011-10-01T02:00:00Z,27.5400,-82.7400,0.012,1111122 
COMPS,ioos:station:USF.COMPS:ANM:1,2011-10-01T02:06:00Z,27.5400,-82.7400,0.032,1111122 
COMPS,ioos:station:USF.COMPS:ANM:1,2011-10-01T02:12:00Z,27.5400,-82.7400,0.042,1111122 
COMPS,ioos:station:USF.COMPS:ANM:1,2011-10-01T02:18:00Z,27.5400,-82.7400,0.043,1111122 
COMPS,ioos:station:USF.COMPS:ANM:1,2011-10-01T02:24:00Z,27.5400,-82.7400,0.06,1111122 
COMPS,ioos:station:USF.COMPS:ANM:1,2011-10-01T02:30:00Z,27.5400,-82.7400,0.062,1111122 
COMPS,ioos:station:USF.COMPS:ANM:1,2011-10-01T02:36:00Z,27.5400,-82.7400,0.085,1111122 
COMPS,ioos:station:USF.COMPS:ANM:1,2011-10-01T02:42:00Z,27.5400,-82.7400,0.097,1111122 
COMPS,ioos:station:USF.COMPS:ANM:1,2011-10-01T02:48:00Z,27.5400,-82.7400,0.099,1111122 
COMPS,ioos:station:USF.COMPS:ANM:1,2011-10-01T02:54:00Z,27.5400,-82.7400,0.106,1111122 
COMPS,ioos:station:USF.COMPS:ANM:1,2011-10-01T03:00:00Z,27.5400,-82.7400,0.12,1111122 
COMPS,ioos:station:USF.COMPS:ANM:1,2011-10-01T03:06:00Z,27.5400,-82.7400,0.138,1111122 
COMPS,ioos:station:USF.COMPS:ANM:1,2011-10-01T03:12:00Z,27.5400,-82.7400,0.146,1111122 
COMPS,ioos:station:USF.COMPS:ANM:1,2011-10-01T03:18:00Z,27.5400,-82.7400,0.154,1111122 
COMPS,ioos:station:USF.COMPS:ANM:1,2011-10-01T03:24:00Z,27.5400,-82.7400,0.169,1111122 
COMPS,ioos:station:USF.COMPS:ANM:1,2011-10-01T03:30:00Z,27.5400,-82.7400,0.173,1111122 
COMPS,ioos:station:USF.COMPS:ANM:1,2011-10-01T03:36:00Z,27.5400,-82.7400,0.184,1111122 
COMPS,ioos:station:USF.COMPS:ANM:1,2011-10-01T03:42:00Z,27.5400,-82.7400,0.198,1111122 
COMPS,ioos:station:USF.COMPS:ANM:1,2011-10-01T03:48:00Z,27.5400,-82.7400,0.218,1111122 
COMPS,ioos:station:USF.COMPS:ANM:1,2011-10-01T03:54:00Z,27.5400,-82.7400,0.227,1111122 
COMPS,ioos:station:USF.COMPS:ANM:1,2011-10-01T05:00:00Z,27.5400,-82.7400,0.311,1111122 
COMPS,ioos:station:USF.COMPS:ANM:1,2011-10-01T05:06:00Z,27.5400,-82.7400,0.31,1111122 
COMPS,ioos:station:USF.COMPS:ANM:1,2011-10-01T05:12:00Z,27.5400,-82.7400,0.311,1111122 
COMPS,ioos:station:USF.COMPS:ANM:1,2011-10-01T05:18:00Z,27.5400,-82.7400,0.318,1111122 
COMPS,ioos:station:USF.COMPS:ANM:1,2011-10-01T05:24:00Z,27.5400,-82.7400,0.329,1111122 
COMPS,ioos:station:USF.COMPS:ANM:1,2011-10-01T05:30:00Z,27.5400,-82.7400,0.33,1111122 
COMPS,ioos:station:USF.COMPS:ANM:1,2011-10-01T05:36:00Z,27.5400,-82.7400,0.326,1111122 
COMPS,ioos:station:USF.COMPS:ANM:1,2011-10-01T05:42:00Z,27.5400,-82.7400,0.322,1111122 
COMPS,ioos:station:USF.COMPS:ANM:1,2011-10-01T05:48:00Z,27.5400,-82.7400,0.336,1111122 
COMPS,ioos:station:USF.COMPS:ANM:1,2011-10-01T05:54:00Z,27.5400,-82.7400,0.338,1111122 
COMPS,ioos:station:USF.COMPS:ANM:1,2011-10-01T06:00:00Z,27.5400,-82.7400,0.335,1111122 
COMPS,ioos:station:USF.COMPS:ANM:1,2011-10-01T06:06:00Z,27.5400,-82.7400,0.34,1111122 
COMPS,ioos:station:USF.COMPS:ANM:1,2011-10-01T06:12:00Z,27.5400,-82.7400,0.329,1111122 
COMPS,ioos:station:USF.COMPS:ANM:1,2011-10-01T06:18:00Z,27.5400,-82.7400,0.326,1111122 
COMPS,ioos:station:USF.COMPS:ANM:1,2011-10-01T06:24:00Z,27.5400,-82.7400,0.328,1111122 
COMPS,ioos:station:USF.COMPS:ANM:1,2011-10-01T06:30:00Z,27.5400,-82.7400,0.32,1111122 
COMPS,ioos:station:USF.COMPS:ANM:1,2011-10-01T06:36:00Z,27.5400,-82.7400,0.323,1111122 
COMPS,ioos:station:USF.COMPS:ANM:1,2011-10-01T06:42:00Z,27.5400,-82.7400,0.316,1111122 
COMPS,ioos:station:USF.COMPS:ANM:1,2011-10-01T06:48:00Z,27.5400,-82.7400,0.306,1111122 
COMPS,ioos:station:USF.COMPS:ANM:1,2011-10-01T06:54:00Z,27.5400,-82.7400,0.304,1111122 
COMPS,ioos:station:USF.COMPS:ANM:1,2011-10-01T07:00:00Z,27.5400,-82.7400,0.303,1111122 
COMPS,ioos:station:USF.COMPS:ANM:1,2011-10-01T07:06:00Z,27.5400,-82.7400,0.291,1111122 
COMPS,ioos:station:USF.COMPS:ANM:1,2011-10-01T07:12:00Z,27.5400,-82.7400,0.289,1111122 
COMPS,ioos:station:USF.COMPS:ANM:1,2011-10-01T07:18:00Z,27.5400,-82.7400,0.289,1111122 
COMPS,ioos:station:USF.COMPS:ANM:1,2011-10-01T07:24:00Z,27.5400,-82.7400,0.28,1111122 
COMPS,ioos:station:USF.COMPS:ANM:1,2011-10-01T07:30:00Z,27.5400,-82.7400,0.265,1111122 
COMPS,ioos:station:USF.COMPS:ANM:1,2011-10-01T07:36:00Z,27.5400,-82.7400,0.248,1111122 
COMPS,ioos:station:USF.COMPS:ANM:1,2011-10-01T07:42:00Z,27.5400,-82.7400,0.239,1111122 
COMPS,ioos:station:USF.COMPS:ANM:1,2011-10-01T07:48:00Z,27.5400,-82.7400,0.243,1111122 
COMPS,ioos:station:USF.COMPS:ANM:1,2011-10-01T07:54:00Z,27.5400,-82.7400,0.235,1111122 
COMPS,ioos:station:USF.COMPS:ANM:1,2011-10-01T08:00:00Z,27.5400,-82.7400,0.218,1111122 
COMPS,ioos:station:USF.COMPS:ANM:1,2011-10-01T08:06:00Z,27.5400,-82.7400,0.211,1111122 
COMPS,ioos:station:USF.COMPS:ANM:1,2011-10-01T08:12:00Z,27.5400,-82.7400,0.202,1111122 
COMPS,ioos:station:USF.COMPS:ANM:1,2011-10-01T08:18:00Z,27.5400,-82.7400,0.189,1111122 
COMPS,ioos:station:USF.COMPS:ANM:1,2011-10-01T08:24:00Z,27.5400,-82.7400,0.169,1111122 
COMPS,ioos:station:USF.COMPS:ANM:1,2011-10-01T08:30:00Z,27.5400,-82.7400,0.156,1111122 
COMPS,ioos:station:USF.COMPS:ANM:1,2011-10-01T08:36:00Z,27.5400,-82.7400,0.141,1111122 
COMPS,ioos:station:USF.COMPS:ANM:1,2011-10-01T08:42:00Z,27.5400,-82.7400,0.128,1111122 
COMPS,ioos:station:USF.COMPS:ANM:1,2011-10-01T08:48:00Z,27.5400,-82.7400,0.112,1111122 
COMPS,ioos:station:USF.COMPS:ANM:1,2011-10-01T08:54:00Z,27.5400,-82.7400,0.094,1111122 
COMPS,ioos:station:USF.COMPS:ANM:1,2011-10-01T09:00:00Z,27.5400,-82.7400,0.089,1111122 
COMPS,ioos:station:USF.COMPS:ANM:1,2011-10-01T09:06:00Z,27.5400,-82.7400,0.091,1111122 
COMPS,ioos:station:USF.COMPS:ANM:1,2011-10-01T09:12:00Z,27.5400,-82.7400,0.078,1111122 
COMPS,ioos:station:USF.COMPS:ANM:1,2011-10-01T09:18:00Z,27.5400,-82.7400,0.04,1111122 
COMPS,ioos:station:USF.COMPS:ANM:1,2011-10-01T09:24:00Z,27.5400,-82.7400,0.012,1111122 
COMPS,ioos:station:USF.COMPS:ANM:1,2011-10-01T09:30:00Z,27.5400,-82.7400,-0.023,1111122 
COMPS,ioos:station:USF.COMPS:ANM:1,2011-10-01T09:36:00Z,27.5400,-82.7400,-0.051,1111122 
COMPS,ioos:station:USF.COMPS:ANM:1,2011-10-01T09:42:00Z,27.5400,-82.7400,-0.064,1111122 
COMPS,ioos:station:USF.COMPS:ANM:1,2011-10-01T09:48:00Z,27.5400,-82.7400,-0.068,1111122 
COMPS,ioos:station:USF.COMPS:ANM:1,2011-10-01T09:54:00Z,27.5400,-82.7400,-0.089,1111122 
COMPS,ioos:station:USF.COMPS:ANM:1,2011-10-01T10:00:00Z,27.5400,-82.7400,-0.106,1111122 
COMPS,ioos:station:USF.COMPS:ANM:1,2011-10-01T10:06:00Z,27.5400,-82.7400,-0.124,1111122 
COMPS,ioos:station:USF.COMPS:ANM:1,2011-10-01T10:12:00Z,27.5400,-82.7400,-0.152,1111122 
COMPS,ioos:station:USF.COMPS:ANM:1,2011-10-01T10:18:00Z,27.5400,-82.7400,-0.187,1111122 
COMPS,ioos:station:USF.COMPS:ANM:1,2011-10-01T10:24:00Z,27.5400,-82.7400,-0.191,1111122 
COMPS,ioos:station:USF.COMPS:ANM:1,2011-10-01T10:30:00Z,27.5400,-82.7400,-0.209,1111122 
COMPS,ioos:station:USF.COMPS:ANM:1,2011-10-01T10:36:00Z,27.5400,-82.7400,-0.226,1111122 
COMPS,ioos:station:USF.COMPS:ANM:1,2011-10-01T10:42:00Z,27.5400,-82.7400,-0.253,1111122 
COMPS,ioos:station:USF.COMPS:ANM:1,2011-10-01T10:48:00Z,27.5400,-82.7400,-0.273,1111122 
COMPS,ioos:station:USF.COMPS:ANM:1,2011-10-01T10:54:00Z,27.5400,-82.7400,-0.288,1111122 
COMPS,ioos:station:USF.COMPS:ANM:1,2011-10-01T11:00:00Z,27.5400,-82.7400,-0.302,1111122 
COMPS,ioos:station:USF.COMPS:ANM:1,2011-10-01T11:06:00Z,27.5400,-82.7400,-0.324,1111122 
COMPS,ioos:station:USF.COMPS:ANM:1,2011-10-01T11:12:00Z,27.5400,-82.7400,-0.347,1111122 
COMPS,ioos:station:USF.COMPS:ANM:1,2011-10-01T11:18:00Z,27.5400,-82.7400,-0.371,1111122 
COMPS,ioos:station:USF.COMPS:ANM:1,2011-10-01T11:24:00Z,27.5400,-82.7400,-0.384,1111122 
COMPS,ioos:station:USF.COMPS:ANM:1,2011-10-01T11:30:00Z,27.5400,-82.7400,-0.397,1111122 
COMPS,ioos:station:USF.COMPS:ANM:1,2011-10-01T11:36:00Z,27.5400,-82.7400,-0.411,1111122 
COMPS,ioos:station:USF.COMPS:ANM:1,2011-10-01T11:42:00Z,27.5400,-82.7400,-0.424,1111122 
COMPS,ioos:station:USF.COMPS:ANM:1,2011-10-01T11:48:00Z,27.5400,-82.7400,-0.432,1111122 
COMPS,ioos:station:USF.COMPS:ANM:1,2011-10-01T11:54:00Z,27.5400,-82.7400,-0.44,1111122 
COMPS,ioos:station:USF.COMPS:ANM:1,2011-10-01T12:00:00Z,27.5400,-82.7400,-0.455,1111122 
COMPS,ioos:station:USF.COMPS:ANM:1,2011-10-01T12:06:00Z,27.5400,-82.7400,-0.463,1111122 
COMPS,ioos:station:USF.COMPS:ANM:1,2011-10-01T12:12:00Z,27.5400,-82.7400,-0.468,1111122 
COMPS,ioos:station:USF.COMPS:ANM:1,2011-10-01T12:18:00Z,27.5400,-82.7400,-0.482,1111122 
COMPS,ioos:station:USF.COMPS:ANM:1,2011-10-01T12:24:00Z,27.5400,-82.7400,-0.489,1111122 
COMPS,ioos:station:USF.COMPS:ANM:1,2011-10-01T12:30:00Z,27.5400,-82.7400,-0.49,1111122 
COMPS,ioos:station:USF.COMPS:ANM:1,2011-10-01T12:36:00Z,27.5400,-82.7400,-0.5,1111122 
COMPS,ioos:station:USF.COMPS:ANM:1,2011-10-01T12:42:00Z,27.5400,-82.7400,-0.51,1111122 
COMPS,ioos:station:USF.COMPS:ANM:1,2011-10-01T12:48:00Z,27.5400,-82.7400,-0.515,1111122 
COMPS,ioos:station:USF.COMPS:ANM:1,2011-10-01T12:54:00Z,27.5400,-82.7400,-0.512,1111122 
COMPS,ioos:station:USF.COMPS:ANM:1,2011-10-01T13:00:00Z,27.5400,-82.7400,-0.517,1111122 
COMPS,ioos:station:USF.COMPS:ANM:1,2011-10-01T13:06:00Z,27.5400,-82.7400,-0.516,1111122 
COMPS,ioos:station:USF.COMPS:ANM:1,2011-10-01T13:12:00Z,27.5400,-82.7400,-0.519,1111122 
COMPS,ioos:station:USF.COMPS:ANM:1,2011-10-01T13:18:00Z,27.5400,-82.7400,-0.524,1111122 
COMPS,ioos:station:USF.COMPS:ANM:1,2011-10-01T13:24:00Z,27.5400,-82.7400,-0.52,1111122 
COMPS,ioos:station:USF.COMPS:ANM:1,2011-10-01T13:30:00Z,27.5400,-82.7400,-0.514,1111122 
COMPS,ioos:station:USF.COMPS:ANM:1,2011-10-01T13:36:00Z,27.5400,-82.7400,-0.508,1111122 
COMPS,ioos:station:USF.COMPS:ANM:1,2011-10-01T13:42:00Z,27.5400,-82.7400,-0.502,1111122 
COMPS,ioos:station:USF.COMPS:ANM:1,2011-10-01T13:48:00Z,27.5400,-82.7400,-0.505,1111122 
COMPS,ioos:station:USF.COMPS:ANM:1,2011-10-01T13:54:00Z,27.5400,-82.7400,-0.499,1111122 
COMPS,ioos:station:USF.COMPS:ANM:1,2011-10-01T14:00:00Z,27.5400,-82.7400,-0.497,1111122 
COMPS,ioos:station:USF.COMPS:ANM:1,2011-10-01T14:06:00Z,27.5400,-82.7400,-0.49,1111122 
COMPS,ioos:station:USF.COMPS:ANM:1,2011-10-01T14:12:00Z,27.5400,-82.7400,-0.482,1111122 
COMPS,ioos:station:USF.COMPS:ANM:1,2011-10-01T14:18:00Z,27.5400,-82.7400,-0.478,1111122 
COMPS,ioos:station:USF.COMPS:ANM:1,2011-10-01T14:24:00Z,27.5400,-82.7400,-0.473,1111122 
COMPS,ioos:station:USF.COMPS:ANM:1,2011-10-01T14:30:00Z,27.5400,-82.7400,-0.468,1111122 
COMPS,ioos:station:USF.COMPS:ANM:1,2011-10-01T14:36:00Z,27.5400,-82.7400,-0.46,1111122 
COMPS,ioos:station:USF.COMPS:ANM:1,2011-10-01T14:42:00Z,27.5400,-82.7400,-0.454,1111122 
COMPS,ioos:station:USF.COMPS:ANM:1,2011-10-01T14:48:00Z,27.5400,-82.7400,-0.447,1111122 
COMPS,ioos:station:USF.COMPS:ANM:1,2011-10-01T14:54:00Z,27.5400,-82.7400,-0.442,1111122 
COMPS,ioos:station:USF.COMPS:ANM:1,2011-10-01T15:00:00Z,27.5400,-82.7400,-0.437,1111122 
COMPS,ioos:station:USF.COMPS:ANM:1,2011-10-01T15:06:00Z,27.5400,-82.7400,-0.432,1111122 
COMPS,ioos:station:USF.COMPS:ANM:1,2011-10-01T15:12:00Z,27.5400,-82.7400,-0.421,1111122 
COMPS,ioos:station:USF.COMPS:ANM:1,2011-10-01T15:18:00Z,27.5400,-82.7400,-0.411,1111122 
COMPS,ioos:station:USF.COMPS:ANM:1,2011-10-01T15:24:00Z,27.5400,-82.7400,-0.398,1111122 
COMPS,ioos:station:USF.COMPS:ANM:1,2011-10-01T15:30:00Z,27.5400,-82.7400,-0.393,1111122 
COMPS,ioos:station:USF.COMPS:ANM:1,2011-10-01T15:36:00Z,27.5400,-82.7400,-0.382,1111122 
COMPS,ioos:station:USF.COMPS:ANM:1,2011-10-01T15:42:00Z,27.5400,-82.7400,-0.362,1111122 
COMPS,ioos:station:USF.COMPS:ANM:1,2011-10-01T15:48:00Z,27.5400,-82.7400,-0.359,1111122 
COMPS,ioos:station:USF.COMPS:ANM:1,2011-10-01T15:54:00Z,27.5400,-82.7400,-0.355,1111122 
COMPS,ioos:station:USF.COMPS:ANM:1,2011-10-01T16:00:00Z,27.5400,-82.7400,-0.349,1111122 
COMPS,ioos:station:USF.COMPS:ANM:1,2011-10-01T16:06:00Z,27.5400,-82.7400,-0.346,1111122 
COMPS,ioos:station:USF.COMPS:ANM:1,2011-10-01T16:12:00Z,27.5400,-82.7400,-0.341,1111122 
COMPS,ioos:station:USF.COMPS:ANM:1,2011-10-01T16:18:00Z,27.5400,-82.7400,-0.327,1111122 
COMPS,ioos:station:USF.COMPS:ANM:1,2011-10-01T16:24:00Z,27.5400,-82.7400,-0.336,1111122 
COMPS,ioos:station:USF.COMPS:ANM:1,2011-10-01T16:30:00Z,27.5400,-82.7400,-0.315,1111122 
COMPS,ioos:station:USF.COMPS:ANM:1,2011-10-01T16:36:00Z,27.5400,-82.7400,-0.303,1111122 
COMPS,ioos:station:USF.COMPS:ANM:1,2011-10-01T16:42:00Z,27.5400,-82.7400,-0.295,1111122 
COMPS,ioos:station:USF.COMPS:ANM:1,2011-10-01T16:48:00Z,27.5400,-82.7400,-0.29,1111122 
COMPS,ioos:station:USF.COMPS:ANM:1,2011-10-01T16:54:00Z,27.5400,-82.7400,-0.277,1111122 
COMPS,ioos:station:USF.COMPS:ANM:1,2011-10-01T17:00:00Z,27.5400,-82.7400,-0.273,1111122 
COMPS,ioos:station:USF.COMPS:ANM:1,2011-10-01T17:06:00Z,27.5400,-82.7400,-0.267,1111122 
COMPS,ioos:station:USF.COMPS:ANM:1,2011-10-01T17:12:00Z,27.5400,-82.7400,-0.262,1111122 
COMPS,ioos:station:USF.COMPS:ANM:1,2011-10-01T17:18:00Z,27.5400,-82.7400,-0.253,1111122 
COMPS,ioos:station:USF.COMPS:ANM:1,2011-10-01T17:24:00Z,27.5400,-82.7400,-0.242,1111122 
COMPS,ioos:station:USF.COMPS:ANM:1,2011-10-01T17:30:00Z,27.5400,-82.7400,-0.238,1111122 
COMPS,ioos:station:USF.COMPS:ANM:1,2011-10-01T17:36:00Z,27.5400,-82.7400,-0.235,1111122 
COMPS,ioos:station:USF.COMPS:ANM:1,2011-10-01T17:42:00Z,27.5400,-82.7400,-0.233,1111122 
COMPS,ioos:station:USF.COMPS:ANM:1,2011-10-01T17:48:00Z,27.5400,-82.7400,-0.232,1111122 
COMPS,ioos:station:USF.COMPS:ANM:1,2011-10-01T17:54:00Z,27.5400,-82.7400,-0.221,1111122 
COMPS,ioos:station:USF.COMPS:ANM:1,2011-10-01T18:00:00Z,27.5400,-82.7400,-0.226,1111122 
COMPS,ioos:station:USF.COMPS:ANM:1,2011-10-01T18:06:00Z,27.5400,-82.7400,-0.206,1111122 
COMPS,ioos:station:USF.COMPS:ANM:1,2011-10-01T18:12:00Z,27.5400,-82.7400,-0.202,1111122 
COMPS,ioos:station:USF.COMPS:ANM:1,2011-10-01T18:18:00Z,27.5400,-82.7400,-0.19,1111122 
COMPS,ioos:station:USF.COMPS:ANM:1,2011-10-01T18:24:00Z,27.5400,-82.7400,-0.178,1111122 
COMPS,ioos:station:USF.COMPS:ANM:1,2011-10-01T18:30:00Z,27.5400,-82.7400,-0.18,1111122 
COMPS,ioos:station:USF.COMPS:ANM:1,2011-10-01T18:36:00Z,27.5400,-82.7400,-0.179,1111122 
COMPS,ioos:station:USF.COMPS:ANM:1,2011-10-01T18:42:00Z,27.5400,-82.7400,-0.175,1111122 
COMPS,ioos:station:USF.COMPS:ANM:1,2011-10-01T18:48:00Z,27.5400,-82.7400,-0.176,1111122 
COMPS,ioos:station:USF.COMPS:ANM:1,2011-10-01T18:54:00Z,27.5400,-82.7400,-0.171,1111122 
COMPS,ioos:station:USF.COMPS:ANM:1,2011-10-01T19:00:00Z,27.5400,-82.7400,-0.163,1111122 
COMPS,ioos:station:USF.COMPS:ANM:1,2011-10-01T19:06:00Z,27.5400,-82.7400,-0.162,1111122 
COMPS,ioos:station:USF.COMPS:ANM:1,2011-10-01T19:12:00Z,27.5400,-82.7400,-0.158,1111122 
COMPS,ioos:station:USF.COMPS:ANM:1,2011-10-01T19:18:00Z,27.5400,-82.7400,-0.152,1111122 
COMPS,ioos:station:USF.COMPS:ANM:1,2011-10-01T19:24:00Z,27.5400,-82.7400,-0.146,1111122 
COMPS,ioos:station:USF.COMPS:ANM:1,2011-10-01T19:30:00Z,27.5400,-82.7400,-0.144,1111122 
COMPS,ioos:station:USF.COMPS:ANM:1,2011-10-01T19:36:00Z,27.5400,-82.7400,-0.141,1111122 
COMPS,ioos:station:USF.COMPS:ANM:1,2011-10-01T19:42:00Z,27.5400,-82.7400,-0.144,1111122 
COMPS,ioos:station:USF.COMPS:ANM:1,2011-10-01T19:48:00Z,27.5400,-82.7400,-0.14,1111122 
COMPS,ioos:station:USF.COMPS:ANM:1,2011-10-01T19:54:00Z,27.5400,-82.7400,-0.123,1111122 
COMPS,ioos:station:USF.COMPS:ANM:1,2011-10-01T20:00:00Z,27.5400,-82.7400,-0.115,1111122 
COMPS,ioos:station:USF.COMPS:ANM:1,2011-10-01T20:06:00Z,27.5400,-82.7400,-0.118,1111122 
COMPS,ioos:station:USF.COMPS:ANM:1,2011-10-01T20:12:00Z,27.5400,-82.7400,-0.115,1111122 
COMPS,ioos:station:USF.COMPS:ANM:1,2011-10-01T20:18:00Z,27.5400,-82.7400,-0.101,1111122 
COMPS,ioos:station:USF.COMPS:ANM:1,2011-10-01T20:24:00Z,27.5400,-82.7400,-0.089,1111122 
COMPS,ioos:station:USF.COMPS:ANM:1,2011-10-01T20:30:00Z,27.5400,-82.7400,-0.086,1111122 
COMPS,ioos:station:USF.COMPS:ANM:1,2011-10-01T20:36:00Z,27.5400,-82.7400,-0.087,1111122 
COMPS,ioos:station:USF.COMPS:ANM:1,2011-10-01T20:42:00Z,27.5400,-82.7400,-0.074,1111122 
COMPS,ioos:station:USF.COMPS:ANM:1,2011-10-01T20:48:00Z,27.5400,-82.7400,-0.079,1111122 
COMPS,ioos:station:USF.COMPS:ANM:1,2011-10-01T20:54:00Z,27.5400,-82.7400,-0.072,1111122 
COMPS,ioos:station:USF.COMPS:ANM:1,2011-10-01T21:00:00Z,27.5400,-82.7400,-0.067,1111122 
COMPS,ioos:station:USF.COMPS:ANM:1,2011-10-01T21:06:00Z,27.5400,-82.7400,-0.071,1111122 
COMPS,ioos:station:USF.COMPS:ANM:1,2011-10-01T21:12:00Z,27.5400,-82.7400,-0.069,1111122 
COMPS,ioos:station:USF.COMPS:ANM:1,2011-10-01T21:18:00Z,27.5400,-82.7400,-0.073,1111122 
COMPS,ioos:station:USF.COMPS:ANM:1,2011-10-01T21:24:00Z,27.5400,-82.7400,-0.066,1111122 
COMPS,ioos:station:USF.COMPS:ANM:1,2011-10-01T21:30:00Z,27.5400,-82.7400,-0.067,1111122 
COMPS,ioos:station:USF.COMPS:ANM:1,2011-10-01T21:36:00Z,27.5400,-82.7400,-0.074,1111122 
COMPS,ioos:station:USF.COMPS:ANM:1,2011-10-01T21:42:00Z,27.5400,-82.7400,-0.078,1111122 
COMPS,ioos:station:USF.COMPS:ANM:1,2011-10-01T21:48:00Z,27.5400,-82.7400,-0.082,1111122 
COMPS,ioos:station:USF.COMPS:ANM:1,2011-10-01T21:54:00Z,27.5400,-82.7400,-0.085,1111122 
COMPS,ioos:station:USF.COMPS:ANM:1,2011-10-01T22:00:00Z,27.5400,-82.7400,-0.09,1111122 
COMPS,ioos:station:USF.COMPS:ANM:1,2011-10-01T22:06:00Z,27.5400,-82.7400,-0.097,1111122 
COMPS,ioos:station:USF.COMPS:ANM:1,2011-10-01T22:12:00Z,27.5400,-82.7400,-0.105,1111122 
COMPS,ioos:station:USF.COMPS:ANM:1,2011-10-01T22:18:00Z,27.5400,-82.7400,-0.103,1111122 
COMPS,ioos:station:USF.COMPS:ANM:1,2011-10-01T22:24:00Z,27.5400,-82.7400,-0.109,1111122 
COMPS,ioos:station:USF.COMPS:ANM:1,2011-10-01T22:30:00Z,27.5400,-82.7400,-0.11,1111122 
COMPS,ioos:station:USF.COMPS:ANM:1,2011-10-01T22:36:00Z,27.5400,-82.7400,-0.111,1111122 
COMPS,ioos:station:USF.COMPS:ANM:1,2011-10-01T22:42:00Z,27.5400,-82.7400,-0.115,1111122 
COMPS,ioos:station:USF.COMPS:ANM:1,2011-10-01T22:48:00Z,27.5400,-82.7400,-0.11,1111122 
COMPS,ioos:station:USF.COMPS:ANM:1,2011-10-01T22:54:00Z,27.5400,-82.7400,-0.111,1111122 
COMPS,ioos:station:USF.COMPS:ANM:1,2011-10-02T00:00:00Z,27.5400,-82.7400,-0.113,1111122 
COMPS,ioos:station:USF.COMPS:ANM:1,2011-10-02T00:06:00Z,27.5400,-82.7400,-0.11,1111122 
COMPS,ioos:station:USF.COMPS:ANM:1,2011-10-02T00:12:00Z,27.5400,-82.7400,-0.116,1111122 
COMPS,ioos:station:USF.COMPS:ANM:1,2011-10-02T00:18:00Z,27.5400,-82.7400,-0.112,1111122 
COMPS,ioos:station:USF.COMPS:ANM:1,2011-10-02T00:24:00Z,27.5400,-82.7400,-0.102,1111122 
COMPS,ioos:station:USF.COMPS:ANM:1,2011-10-02T00:30:00Z,27.5400,-82.7400,-0.102,1111122 
COMPS,ioos:station:USF.COMPS:ANM:1,2011-10-02T00:36:00Z,27.5400,-82.7400,-0.1,1111122 
COMPS,ioos:station:USF.COMPS:ANM:1,2011-10-02T00:42:00Z,27.5400,-82.7400,-0.106,1111122 
COMPS,ioos:station:USF.COMPS:ANM:1,2011-10-02T00:48:00Z,27.5400,-82.7400,-0.107,1111122 
COMPS,ioos:station:USF.COMPS:ANM:1,2011-10-02T00:54:00Z,27.5400,-82.7400,-0.104,1111122 
COMPS,ioos:station:USF.COMPS:ANM:1,2011-10-02T01:00:00Z,27.5400,-82.7400,-0.101,1111122 
COMPS,ioos:station:USF.COMPS:ANM:1,2011-10-02T01:06:00Z,27.5400,-82.7400,-0.101,1111122 
COMPS,ioos:station:USF.COMPS:ANM:1,2011-10-02T01:12:00Z,27.5400,-82.7400,-0.101,1111122 
COMPS,ioos:station:USF.COMPS:ANM:1,2011-10-02T01:18:00Z,27.5400,-82.7400,-0.09,1111122 
COMPS,ioos:station:USF.COMPS:ANM:1,2011-10-02T01:24:00Z,27.5400,-82.7400,-0.089,1111122 
COMPS,ioos:station:USF.COMPS:ANM:1,2011-10-02T01:30:00Z,27.5400,-82.7400,-0.081,1111122 
COMPS,ioos:station:USF.COMPS:ANM:1,2011-10-02T01:36:00Z,27.5400,-82.7400,-0.084,1111122 
COMPS,ioos:station:USF.COMPS:ANM:1,2011-10-02T01:42:00Z,27.5400,-82.7400,-0.081,1111122 
COMPS,ioos:station:USF.COMPS:ANM:1,2011-10-02T01:48:00Z,27.5400,-82.7400,-0.076,1111122 
COMPS,ioos:station:USF.COMPS:ANM:1,2011-10-02T01:54:00Z,27.5400,-82.7400,-0.07,1111122 
COMPS,ioos:station:USF.COMPS:ANM:1,2011-10-02T02:00:00Z,27.5400,-82.7400,-0.07,1111122 
COMPS,ioos:station:USF.COMPS:ANM:1,2011-10-02T02:06:00Z,27.5400,-82.7400,-0.066,1111122 
COMPS,ioos:station:USF.COMPS:ANM:1,2011-10-02T02:12:00Z,27.5400,-82.7400,-0.058,1111122 
COMPS,ioos:station:USF.COMPS:ANM:1,2011-10-02T02:18:00Z,27.5400,-82.7400,-0.045,1111122 
COMPS,ioos:station:USF.COMPS:ANM:1,2011-10-02T02:24:00Z,27.5400,-82.7400,-0.046,1111122 
COMPS,ioos:station:USF.COMPS:ANM:1,2011-10-02T02:30:00Z,27.5400,-82.7400,-0.044,1111122 
COMPS,ioos:station:USF.COMPS:ANM:1,2011-10-02T02:36:00Z,27.5400,-82.7400,-0.031,1111122 
COMPS,ioos:station:USF.COMPS:ANM:1,2011-10-02T02:42:00Z,27.5400,-82.7400,-0.021,1111122 
COMPS,ioos:station:USF.COMPS:ANM:1,2011-10-02T02:48:00Z,27.5400,-82.7400,-0.016,1111122 
COMPS,ioos:station:USF.COMPS:ANM:1,2011-10-02T02:54:00Z,27.5400,-82.7400,-0.015,1111122 
COMPS,ioos:station:USF.COMPS:ANM:1,2011-10-02T03:00:00Z,27.5400,-82.7400,-0.008,1111122 
COMPS,ioos:station:USF.COMPS:ANM:1,2011-10-02T03:06:00Z,27.5400,-82.7400,0.006,1111122 
COMPS,ioos:station:USF.COMPS:ANM:1,2011-10-02T03:12:00Z,27.5400,-82.7400,0.016,1111122 
COMPS,ioos:station:USF.COMPS:ANM:1,2011-10-02T03:18:00Z,27.5400,-82.7400,0.023,1111122 
COMPS,ioos:station:USF.COMPS:ANM:1,2011-10-02T03:24:00Z,27.5400,-82.7400,0.034,1111122 
COMPS,ioos:station:USF.COMPS:ANM:1,2011-10-02T03:30:00Z,27.5400,-82.7400,0.048,1111122 
COMPS,ioos:station:USF.COMPS:ANM:1,2011-10-02T03:36:00Z,27.5400,-82.7400,0.052,1111122 
COMPS,ioos:station:USF.COMPS:ANM:1,2011-10-02T03:42:00Z,27.5400,-82.7400,0.062,1111122 
COMPS,ioos:station:USF.COMPS:ANM:1,2011-10-02T03:48:00Z,27.5400,-82.7400,0.07,1111122 
COMPS,ioos:station:USF.COMPS:ANM:1,2011-10-02T03:54:00Z,27.5400,-82.7400,0.08,1111122 
COMPS,ioos:station:USF.COMPS:ANM:1,2011-10-02T04:00:00Z,27.5400,-82.7400,0.086,1111122 
COMPS,ioos:station:USF.COMPS:ANM:1,2011-10-02T04:06:00Z,27.5400,-82.7400,0.088,1111122 
COMPS,ioos:station:USF.COMPS:ANM:1,2011-10-02T04:12:00Z,27.5400,-82.7400,0.1,1111122 
COMPS,ioos:station:USF.COMPS:ANM:1,2011-10-02T04:18:00Z,27.5400,-82.7400,0.105,1111122 
COMPS,ioos:station:USF.COMPS:ANM:1,2011-10-02T04:24:00Z,27.5400,-82.7400,0.101,1111122 
COMPS,ioos:station:USF.COMPS:ANM:1,2011-10-02T04:30:00Z,27.5400,-82.7400,0.098,1111122 
COMPS,ioos:station:USF.COMPS:ANM:1,2011-10-02T04:36:00Z,27.5400,-82.7400,0.105,1111122 
COMPS,ioos:station:USF.COMPS:ANM:1,2011-10-02T04:42:00Z,27.5400,-82.7400,0.101,1111122 
COMPS,ioos:station:USF.COMPS:ANM:1,2011-10-02T04:48:00Z,27.5400,-82.7400,0.1,1111122 
COMPS,ioos:station:USF.COMPS:ANM:1,2011-10-02T04:54:00Z,27.5400,-82.7400,0.112,1111122 